,,Stat5,,Stat1,,Stat2,,Stat3,,Stat4,,Wind1,,Wind1,
time,status,PA1M_AVG,status,PR1M_SUM,status,RH1M_AVG,status,SR1M_AVG,status,TA1M_AVG,status,W1dAve1m,status,W1sAve1m,
2001-04-08, 00:00:00,VALID,919.122,VALID,0,VALID,96.8925,VALID,0,VALID,20.9167,VALID,97,VALID,0.942568,
2001-04-08, 00:01:00,VALID,919.121,VALID,0,VALID,96.7564,VALID,-0.0339617,VALID,20.9038,VALID,81,VALID,0.422086,
2001-04-08, 00:02:00,VALID,919.116,VALID,0,VALID,96.6852,VALID,-0.0339617,VALID,20.8807,VALID,80,VALID,0.152114,
2001-04-08, 00:03:00,VALID,919.109,VALID,0,VALID,96.7386,VALID,0,VALID,20.8839,VALID,82,VALID,0.0978618,
2001-04-08, 00:04:00,VALID,919.102,VALID,0,VALID,96.764,VALID,-0.0169808,VALID,20.8839,VALID,100,VALID,0.12283,
2001-04-08, 00:05:00,VALID,919.092,VALID,0,VALID,96.7373,VALID,-0.0169808,VALID,20.8903,VALID,100,VALID,0.195713,
2001-04-08, 00:06:00,VALID,919.073,VALID,0,VALID,96.5974,VALID,-0.0169808,VALID,20.8876,VALID,92,VALID,0.0741132,
2001-04-08, 00:07:00,VALID,919.074,VALID,0,VALID,96.4194,VALID,-0.0169808,VALID,20.8553,VALID,78,VALID,0.0230263,
2001-04-08, 00:08:00,VALID,919.084,VALID,0,VALID,96.4398,VALID,0,VALID,20.8352,VALID,81,VALID,0.177734,
2001-04-08, 00:09:00,VALID,919.067,VALID,0,VALID,96.5288,VALID,0,VALID,20.8354,VALID,81,VALID,0.169764,
2001-04-08, 00:10:00,VALID,919.077,VALID,0,VALID,96.3571,VALID,0,VALID,20.8228,VALID,76,VALID,0.0114183,
2001-04-08, 00:11:00,VALID,919.069,VALID,0,VALID,96.3927,VALID,0,VALID,20.8195,VALID,106,VALID,0.0348214,
2001-04-08, 00:12:00,VALID,919.076,VALID,0,VALID,96.4385,VALID,-0.0169808,VALID,20.8061,VALID,96,VALID,0.129012,
2001-04-08, 00:13:00,VALID,919.076,VALID,0,VALID,96.3507,VALID,0,VALID,20.8031,VALID,14,VALID,0.171875,
2001-04-08, 00:14:00,VALID,919.064,VALID,0,VALID,96.2007,VALID,0,VALID,20.7643,VALID,317,VALID,0,
2001-04-08, 00:15:00,VALID,919.056,VALID,0,VALID,96.1257,VALID,-0.0169808,VALID,20.7616,VALID,317,VALID,0,
2001-04-08, 00:16:00,VALID,919.023,VALID,0,VALID,96.277,VALID,0,VALID,20.7477,VALID,318,VALID,0,
2001-04-08, 00:17:00,VALID,918.987,VALID,0,VALID,96.305,VALID,-0.0169808,VALID,20.7678,VALID,342,VALID,0,
2001-04-08, 00:18:00,VALID,918.966,VALID,0,VALID,96.2986,VALID,-0.0339617,VALID,20.7713,VALID,360,VALID,0,
2001-04-08, 00:19:00,VALID,918.928,VALID,0,VALID,96.2808,VALID,0,VALID,20.7711,VALID,360,VALID,0,
2001-04-08, 00:20:00,VALID,918.929,VALID,0,VALID,96.2757,VALID,-0.0339617,VALID,20.7616,VALID,360,VALID,0,
2001-04-08, 00:21:00,VALID,918.903,VALID,0,VALID,96.1931,VALID,-0.0339617,VALID,20.7651,VALID,360,VALID,0,
2001-04-08, 00:22:00,VALID,918.885,VALID,0,VALID,96.0799,VALID,-0.0169808,VALID,20.7484,VALID,360,VALID,0,
2001-04-08, 00:23:00,VALID,918.866,VALID,0,VALID,96.0443,VALID,0,VALID,20.7258,VALID,241,VALID,0,
2001-04-08, 00:24:00,VALID,918.839,VALID,0,VALID,96.1333,VALID,-0.0169808,VALID,20.6876,VALID,177,VALID,0,
2001-04-08, 00:25:00,VALID,918.808,VALID,0,VALID,96.319,VALID,-0.0169808,VALID,20.6448,VALID,177,VALID,0,
2001-04-08, 00:26:00,VALID,918.771,VALID,0,VALID,96.4766,VALID,0,VALID,20.6262,VALID,177,VALID,0,
2001-04-08, 00:27:00,VALID,918.736,VALID,0,VALID,96.6267,VALID,0,VALID,20.5901,VALID,177,VALID,0,
2001-04-08, 00:28:00,VALID,918.7,VALID,0,VALID,96.778,VALID,-0.0169808,VALID,20.5772,VALID,177,VALID,0,
2001-04-08, 00:29:00,VALID,918.662,VALID,0,VALID,96.9319,VALID,0.0169808,VALID,20.564,VALID,163,VALID,0,
2001-04-08, 00:30:00,VALID,918.621,VALID,0,VALID,97.0476,VALID,-0.0339617,VALID,20.5479,VALID,157,VALID,0,
2001-04-08, 00:31:00,VALID,918.599,VALID,0,VALID,97.101,VALID,-0.0339617,VALID,20.5581,VALID,157,VALID,0,
2001-04-08, 00:32:00,VALID,918.572,VALID,0,VALID,97.045,VALID,0,VALID,20.5484,VALID,162,VALID,0,
2001-04-08, 00:33:00,VALID,918.547,VALID,0,VALID,97.0107,VALID,0,VALID,20.5252,VALID,189,VALID,0,
2001-04-08, 00:34:00,VALID,918.505,VALID,0,VALID,97.0921,VALID,0,VALID,20.5325,VALID,215,VALID,0,
2001-04-08, 00:35:00,VALID,918.469,VALID,0,VALID,97.2218,VALID,-0.0169808,VALID,20.5161,VALID,227,VALID,0,
2001-04-08, 00:36:00,VALID,918.441,VALID,0,VALID,97.3286,VALID,0,VALID,20.5158,VALID,233,VALID,0,
2001-04-08, 00:37:00,VALID,918.399,VALID,0,VALID,97.41,VALID,-0.0339617,VALID,20.5126,VALID,237,VALID,0.000868056,
2001-04-08, 00:38:00,VALID,918.377,VALID,0,VALID,97.4405,VALID,-0.0339617,VALID,20.5225,VALID,238,VALID,0.515024,
2001-04-08, 00:39:00,VALID,918.36,VALID,0,VALID,97.4431,VALID,0,VALID,20.5128,VALID,244,VALID,0.50625,
2001-04-08, 00:40:00,VALID,918.347,VALID,0,VALID,97.4647,VALID,0,VALID,20.5099,VALID,245,VALID,0.278083,
2001-04-08, 00:41:00,VALID,918.332,VALID,0,VALID,97.5244,VALID,-0.0169808,VALID,20.5061,VALID,249,VALID,0.372321,
2001-04-08, 00:42:00,VALID,918.331,VALID,0,VALID,97.5893,VALID,-0.0169808,VALID,20.5263,VALID,246,VALID,0.403212,
2001-04-08, 00:43:00,VALID,918.316,VALID,0,VALID,97.6541,VALID,-0.0169808,VALID,20.5228,VALID,245,VALID,0.530599,
2001-04-08, 00:44:00,VALID,918.303,VALID,0,VALID,97.6974,VALID,0,VALID,20.5161,VALID,252,VALID,0.684679,
2001-04-08, 00:45:00,VALID,918.285,VALID,0,VALID,97.7521,VALID,-0.0169808,VALID,20.5158,VALID,247,VALID,0.728413,
2001-04-08, 00:46:00,VALID,918.259,VALID,0,VALID,97.8042,VALID,0,VALID,20.5096,VALID,245,VALID,0.709418,
2001-04-08, 00:47:00,VALID,918.224,VALID,0,VALID,97.8601,VALID,0,VALID,20.4964,VALID,240,VALID,0.731771,
2001-04-08, 00:48:00,VALID,918.188,VALID,0,VALID,97.8818,VALID,0,VALID,20.4967,VALID,231,VALID,0.890425,
2001-04-08, 00:49:00,VALID,918.139,VALID,0,VALID,97.9212,VALID,-0.0169808,VALID,20.491,VALID,238,VALID,0.627679,
2001-04-08, 00:50:00,VALID,918.094,VALID,0,VALID,97.9606,VALID,0,VALID,20.4775,VALID,251,VALID,0.477618,
2001-04-08, 00:51:00,VALID,918.044,VALID,0,VALID,98.0089,VALID,0,VALID,20.4644,VALID,243,VALID,0.545759,
2001-04-08, 00:52:00,VALID,918.006,VALID,0,VALID,98.0572,VALID,-0.0169808,VALID,20.4708,VALID,248,VALID,0.03125,
2001-04-08, 00:53:00,VALID,917.988,VALID,0,VALID,98.1094,VALID,-0.0169808,VALID,20.484,VALID,248,VALID,0,
2001-04-08, 00:54:00,VALID,917.953,VALID,0,VALID,98.1259,VALID,-0.0169808,VALID,20.4775,VALID,248,VALID,0.000669643,
2001-04-08, 00:55:00,VALID,917.958,VALID,0,VALID,98.1488,VALID,-0.0679233,VALID,20.4905,VALID,246,VALID,0.0242821,
2001-04-08, 00:56:00,VALID,917.929,VALID,0,VALID,98.1374,VALID,-0.0339617,VALID,20.4845,VALID,233,VALID,0.483036,
2001-04-08, 00:57:00,VALID,917.936,VALID,0,VALID,98.103,VALID,-0.0509425,VALID,20.4582,VALID,226,VALID,0.750868,
2001-04-08, 00:58:00,VALID,917.918,VALID,0,VALID,98.1081,VALID,-0.0169808,VALID,20.4547,VALID,227,VALID,0.509549,
2001-04-08, 00:59:00,VALID,917.923,VALID,0,VALID,98.0661,VALID,-0.0339617,VALID,20.4328,VALID,219,VALID,0.603082,
2001-04-08, 01:00:00,VALID,917.92,VALID,0,VALID,98.0572,VALID,0,VALID,20.4032,VALID,231,VALID,0.628701,
2001-04-08, 01:01:00,VALID,917.921,VALID,0,VALID,98.0725,VALID,-0.0509425,VALID,20.4,VALID,227,VALID,0.485026,
2001-04-08, 01:02:00,VALID,917.927,VALID,0,VALID,98.0827,VALID,-0.0509425,VALID,20.4038,VALID,223,VALID,0.56684,
2001-04-08, 01:03:00,VALID,917.926,VALID,0,VALID,98.0611,VALID,-0.0509425,VALID,20.3908,VALID,223,VALID,0.738982,
2001-04-08, 01:04:00,VALID,917.929,VALID,0,VALID,98.0814,VALID,-0.0679233,VALID,20.3941,VALID,221,VALID,0.512277,
2001-04-08, 01:05:00,VALID,917.939,VALID,0,VALID,98.0674,VALID,-0.0169808,VALID,20.3938,VALID,200,VALID,0.719806,
2001-04-08, 01:06:00,VALID,917.937,VALID,0,VALID,98.0534,VALID,-0.0169808,VALID,20.3809,VALID,200,VALID,0.721652,
2001-04-08, 01:07:00,VALID,917.945,VALID,0,VALID,98.042,VALID,-0.0339617,VALID,20.3873,VALID,185,VALID,0.808377,
2001-04-08, 01:08:00,VALID,917.935,VALID,0,VALID,98.028,VALID,-0.0169808,VALID,20.3811,VALID,191,VALID,0.665064,
2001-04-08, 01:09:00,VALID,917.935,VALID,0,VALID,98.0445,VALID,-0.0169808,VALID,20.3776,VALID,178,VALID,0.53683,
2001-04-08, 01:10:00,VALID,917.917,VALID,0,VALID,98.0255,VALID,0,VALID,20.3707,VALID,200,VALID,0.745777,
2001-04-08, 01:11:00,VALID,917.915,VALID,0,VALID,98.0191,VALID,0,VALID,20.3642,VALID,201,VALID,0.345982,
2001-04-08, 01:12:00,VALID,917.887,VALID,0,VALID,98.0165,VALID,-0.0169808,VALID,20.3577,VALID,191,VALID,0.29579,
2001-04-08, 01:13:00,VALID,917.883,VALID,0,VALID,97.9746,VALID,0,VALID,20.3612,VALID,168,VALID,0.843316,
2001-04-08, 01:14:00,VALID,917.871,VALID,0,VALID,97.9555,VALID,-0.0339617,VALID,20.3647,VALID,157,VALID,0.660373,
2001-04-08, 01:15:00,VALID,917.857,VALID,0,VALID,97.897,VALID,0,VALID,20.3685,VALID,162,VALID,0.601151,
2001-04-08, 01:16:00,VALID,917.85,VALID,0,VALID,97.8563,VALID,0,VALID,20.3583,VALID,165,VALID,0.571181,
2001-04-08, 01:17:00,VALID,917.841,VALID,0,VALID,97.8398,VALID,-0.0339617,VALID,20.3488,VALID,168,VALID,0.437066,
2001-04-08, 01:18:00,VALID,917.844,VALID,0,VALID,97.8487,VALID,0,VALID,20.3359,VALID,198,VALID,0.373598,
2001-04-08, 01:19:00,VALID,917.844,VALID,0,VALID,97.8779,VALID,0,VALID,20.3322,VALID,189,VALID,0.797098,
2001-04-08, 01:20:00,VALID,917.834,VALID,0,VALID,97.8919,VALID,0,VALID,20.3287,VALID,229,VALID,0.0570101,
2001-04-08, 01:21:00,VALID,917.816,VALID,0,VALID,97.9148,VALID,0,VALID,20.3359,VALID,212,VALID,0.00334821,
2001-04-08, 01:22:00,VALID,917.805,VALID,0,VALID,97.9428,VALID,-0.0169808,VALID,20.3488,VALID,187,VALID,0,
2001-04-08, 01:23:00,VALID,917.794,VALID,0,VALID,97.9403,VALID,-0.0679233,VALID,20.362,VALID,187,VALID,0,
2001-04-08, 01:24:00,VALID,917.788,VALID,0,VALID,97.883,VALID,-0.0169808,VALID,20.355,VALID,188,VALID,0.257143,
2001-04-08, 01:25:00,VALID,917.802,VALID,0,VALID,97.85,VALID,-0.0169808,VALID,20.3515,VALID,201,VALID,0.184333,
2001-04-08, 01:26:00,VALID,917.793,VALID,0,VALID,97.8245,VALID,-0.0339617,VALID,20.3515,VALID,190,VALID,0.602009,
2001-04-08, 01:27:00,VALID,917.796,VALID,0,VALID,97.8334,VALID,-0.0339617,VALID,20.3488,VALID,180,VALID,0.361545,
2001-04-08, 01:28:00,VALID,917.787,VALID,0,VALID,97.8652,VALID,-0.0339617,VALID,20.3419,VALID,179,VALID,0.50434,
2001-04-08, 01:29:00,VALID,917.78,VALID,0,VALID,97.8754,VALID,-0.0339617,VALID,20.3354,VALID,190,VALID,0.553168,
2001-04-08, 01:30:00,VALID,917.762,VALID,0,VALID,97.8983,VALID,-0.0339617,VALID,20.3386,VALID,193,VALID,0.0143914,
2001-04-08, 01:31:00,VALID,917.743,VALID,0,VALID,97.9517,VALID,-0.0169808,VALID,20.3287,VALID,202,VALID,0.00868056,
2001-04-08, 01:32:00,VALID,917.717,VALID,0,VALID,97.986,VALID,0,VALID,20.3356,VALID,204,VALID,0,
2001-04-08, 01:33:00,VALID,917.689,VALID,0,VALID,97.9949,VALID,0,VALID,20.3356,VALID,205,VALID,0,
2001-04-08, 01:34:00,VALID,917.672,VALID,0,VALID,97.9962,VALID,-0.0679233,VALID,20.3297,VALID,206,VALID,0,
2001-04-08, 01:35:00,VALID,917.64,VALID,0,VALID,98.0229,VALID,0,VALID,20.326,VALID,215,VALID,0.522593,
2001-04-08, 01:36:00,VALID,917.62,VALID,0,VALID,98.0191,VALID,-0.0339617,VALID,20.316,VALID,215,VALID,0.463616,
2001-04-08, 01:37:00,VALID,917.59,VALID,0,VALID,98.0165,VALID,-0.0849042,VALID,20.3197,VALID,204,VALID,0.384332,
2001-04-08, 01:38:00,VALID,917.559,VALID,0,VALID,98.0331,VALID,-0.0169808,VALID,20.3098,VALID,178,VALID,0.48758,
2001-04-08, 01:39:00,VALID,917.527,VALID,0,VALID,98.0789,VALID,-0.0509425,VALID,20.3071,VALID,158,VALID,0.615848,
2001-04-08, 01:40:00,VALID,917.493,VALID,0,VALID,98.0928,VALID,-0.0679233,VALID,20.313,VALID,151,VALID,0.820101,
2001-04-08, 01:41:00,VALID,917.471,VALID,0,VALID,98.0789,VALID,-0.0679233,VALID,20.313,VALID,154,VALID,0.855804,
2001-04-08, 01:42:00,VALID,917.436,VALID,0,VALID,98.0509,VALID,-0.0509425,VALID,20.3168,VALID,152,VALID,0.665582,
2001-04-08, 01:43:00,VALID,917.425,VALID,0,VALID,97.9797,VALID,-0.0339617,VALID,20.3163,VALID,159,VALID,0.727214,
2001-04-08, 01:44:00,VALID,917.415,VALID,0,VALID,97.9898,VALID,-0.0679233,VALID,20.3033,VALID,160,VALID,0.579427,
2001-04-08, 01:45:00,VALID,917.384,VALID,0,VALID,97.972,VALID,-0.0509425,VALID,20.3009,VALID,175,VALID,0.552632,
2001-04-08, 01:46:00,VALID,917.36,VALID,0,VALID,97.9771,VALID,-0.0339617,VALID,20.2748,VALID,179,VALID,0.653429,
2001-04-08, 01:47:00,VALID,917.335,VALID,0,VALID,98.0038,VALID,-0.0679233,VALID,20.2484,VALID,182,VALID,0.50651,
2001-04-08, 01:48:00,VALID,917.311,VALID,0,VALID,98.042,VALID,-0.0679233,VALID,20.2355,VALID,183,VALID,0.354367,
2001-04-08, 01:49:00,VALID,917.284,VALID,0,VALID,98.0852,VALID,-0.0679233,VALID,20.2425,VALID,223,VALID,0.172098,
2001-04-08, 01:50:00,VALID,917.256,VALID,0,VALID,98.1526,VALID,-0.0509425,VALID,20.2387,VALID,226,VALID,0.121199,
2001-04-08, 01:51:00,VALID,917.228,VALID,0,VALID,98.1145,VALID,-0.0679233,VALID,20.2323,VALID,236,VALID,0.614955,
2001-04-08, 01:52:00,VALID,917.206,VALID,0,VALID,98.1297,VALID,-0.0509425,VALID,20.236,VALID,244,VALID,0.183594,
2001-04-08, 01:53:00,VALID,917.175,VALID,0,VALID,98.1526,VALID,-0.0339617,VALID,20.2285,VALID,245,VALID,0.278245,
2001-04-08, 01:54:00,VALID,917.149,VALID,0,VALID,98.1577,VALID,-0.0339617,VALID,20.2484,VALID,241,VALID,0.479911,
2001-04-08, 01:55:00,VALID,917.103,VALID,0,VALID,98.1552,VALID,-0.0509425,VALID,20.2551,VALID,255,VALID,0.471706,
2001-04-08, 01:56:00,VALID,917.07,VALID,0,VALID,98.1577,VALID,-0.0339617,VALID,20.2422,VALID,251,VALID,0.652455,
2001-04-08, 01:57:00,VALID,917.036,VALID,0,VALID,98.1641,VALID,-0.0169808,VALID,20.2482,VALID,244,VALID,0.754123,
2001-04-08, 01:58:00,VALID,917.014,VALID,0,VALID,98.1768,VALID,-0.0169808,VALID,20.2454,VALID,244,VALID,0.933811,
2001-04-08, 01:59:00,VALID,916.996,VALID,0,VALID,98.1971,VALID,0,VALID,20.2589,VALID,244,VALID,0.901259,
2001-04-08, 02:00:00,VALID,916.98,VALID,0,VALID,98.1984,VALID,-0.0509425,VALID,20.2452,VALID,235,VALID,0.757196,
2001-04-08, 02:01:00,VALID,916.942,VALID,0,VALID,98.1857,VALID,0,VALID,20.2489,VALID,233,VALID,1.25716,
2001-04-08, 02:02:00,VALID,916.926,VALID,0,VALID,98.1691,VALID,-0.0509425,VALID,20.2261,VALID,238,VALID,1.11241,
2001-04-08, 02:03:00,VALID,916.906,VALID,0,VALID,98.1704,VALID,-0.0509425,VALID,20.233,VALID,232,VALID,0.849159,
2001-04-08, 02:04:00,VALID,916.882,VALID,0,VALID,98.1666,VALID,-0.0679233,VALID,20.2258,VALID,226,VALID,0.739062,
2001-04-08, 02:05:00,VALID,916.843,VALID,0,VALID,98.1399,VALID,-0.0339617,VALID,20.2193,VALID,236,VALID,0.912914,
2001-04-08, 02:06:00,VALID,916.843,VALID,0,VALID,98.1374,VALID,-0.0339617,VALID,20.2096,VALID,238,VALID,0.896429,
2001-04-08, 02:07:00,VALID,916.834,VALID,0,VALID,98.1094,VALID,0,VALID,20.2032,VALID,247,VALID,0.542535,
2001-04-08, 02:08:00,VALID,916.818,VALID,0,VALID,98.07,VALID,0,VALID,20.1873,VALID,236,VALID,0.690705,
2001-04-08, 02:09:00,VALID,916.813,VALID,0,VALID,97.9848,VALID,-0.0169808,VALID,20.1776,VALID,239,VALID,1.19732,
2001-04-08, 02:10:00,VALID,916.815,VALID,0,VALID,97.8881,VALID,-0.0169808,VALID,20.1676,VALID,236,VALID,1.04962,
2001-04-08, 02:11:00,VALID,916.812,VALID,0,VALID,97.8423,VALID,0,VALID,20.1808,VALID,234,VALID,0.840625,
2001-04-08, 02:12:00,VALID,916.8,VALID,0,VALID,97.7915,VALID,0,VALID,20.1972,VALID,256,VALID,0.255642,
2001-04-08, 02:13:00,VALID,916.787,VALID,0,VALID,97.766,VALID,0,VALID,20.1972,VALID,247,VALID,0.420139,
2001-04-08, 02:14:00,VALID,916.783,VALID,0,VALID,97.7292,VALID,-0.0339617,VALID,20.1972,VALID,231,VALID,0.710503,
2001-04-08, 02:15:00,VALID,916.762,VALID,0,VALID,97.663,VALID,0,VALID,20.1806,VALID,235,VALID,1.16982,
2001-04-08, 02:16:00,VALID,916.754,VALID,0,VALID,97.6452,VALID,-0.0679233,VALID,20.1781,VALID,229,VALID,1.07856,
2001-04-08, 02:17:00,VALID,916.737,VALID,0,VALID,97.63,VALID,-0.0339617,VALID,20.1773,VALID,232,VALID,1.10069,
2001-04-08, 02:18:00,VALID,916.724,VALID,0,VALID,97.6554,VALID,-0.0509425,VALID,20.1711,VALID,226,VALID,1.18329,
2001-04-08, 02:19:00,VALID,916.7,VALID,0,VALID,97.6758,VALID,-0.0169808,VALID,20.1843,VALID,221,VALID,1.30223,
2001-04-08, 02:20:00,VALID,916.694,VALID,0,VALID,97.7203,VALID,0,VALID,20.1706,VALID,223,VALID,1.27977,
2001-04-08, 02:21:00,VALID,916.666,VALID,0,VALID,97.8004,VALID,-0.0339617,VALID,20.1875,VALID,224,VALID,1.73549,
2001-04-08, 02:22:00,VALID,916.663,VALID,0,VALID,97.8576,VALID,-0.0169808,VALID,20.1905,VALID,209,VALID,1.37543,
2001-04-08, 02:23:00,VALID,916.655,VALID,0,VALID,97.8551,VALID,-0.0169808,VALID,20.1935,VALID,210,VALID,0.909255,
2001-04-08, 02:24:00,VALID,916.663,VALID,0,VALID,97.8729,VALID,-0.0169808,VALID,20.1943,VALID,204,VALID,1.3808,
2001-04-08, 02:25:00,VALID,916.682,VALID,0,VALID,97.8881,VALID,-0.0169808,VALID,20.1843,VALID,192,VALID,0.953758,
2001-04-08, 02:26:00,VALID,916.673,VALID,0,VALID,97.9136,VALID,-0.0509425,VALID,20.1771,VALID,195,VALID,1.45804,
2001-04-08, 02:27:00,VALID,916.662,VALID,0,VALID,97.925,VALID,-0.0509425,VALID,20.1773,VALID,218,VALID,0.854818,
2001-04-08, 02:28:00,VALID,916.63,VALID,0,VALID,97.9682,VALID,-0.0169808,VALID,20.1778,VALID,226,VALID,0.880425,
2001-04-08, 02:29:00,VALID,916.612,VALID,0,VALID,98.0293,VALID,-0.0169808,VALID,20.1644,VALID,212,VALID,0.878689,
2001-04-08, 02:30:00,VALID,916.569,VALID,0,VALID,98.1017,VALID,-0.0169808,VALID,20.1647,VALID,199,VALID,0.844572,
2001-04-08, 02:31:00,VALID,916.546,VALID,0,VALID,98.1577,VALID,-0.0169808,VALID,20.1552,VALID,215,VALID,0.480686,
2001-04-08, 02:32:00,VALID,916.524,VALID,0,VALID,98.2213,VALID,-0.0169808,VALID,20.1493,VALID,227,VALID,0.665365,
2001-04-08, 02:33:00,VALID,916.522,VALID,0,VALID,98.2861,VALID,0,VALID,20.1358,VALID,224,VALID,0.748998,
2001-04-08, 02:34:00,VALID,916.513,VALID,0,VALID,98.2925,VALID,0,VALID,20.1232,VALID,236,VALID,1.95714,
2001-04-08, 02:35:00,VALID,916.513,VALID,0,VALID,98.3179,VALID,0,VALID,20.1194,VALID,234,VALID,1.59375,
2001-04-08, 02:36:00,VALID,916.53,VALID,0,VALID,98.3243,VALID,-0.0169808,VALID,20.1229,VALID,242,VALID,1.92679,
2001-04-08, 02:37:00,VALID,916.528,VALID,0,VALID,98.3319,VALID,0,VALID,20.1229,VALID,246,VALID,1.29492,
2001-04-08, 02:38:00,VALID,916.513,VALID,0,VALID,98.3434,VALID,-0.0169808,VALID,20.1162,VALID,250,VALID,0.838542,
2001-04-08, 02:39:00,VALID,916.515,VALID,0,VALID,98.3395,VALID,0,VALID,20.1165,VALID,247,VALID,0.875223,
2001-04-08, 02:40:00,VALID,916.507,VALID,0,VALID,98.3344,VALID,-0.0339617,VALID,20.1167,VALID,255,VALID,0.709671,
2001-04-08, 02:41:00,VALID,916.513,VALID,0,VALID,98.3446,VALID,-0.0169808,VALID,20.1068,VALID,250,VALID,0.772768,
2001-04-08, 02:42:00,VALID,916.5,VALID,0,VALID,98.3154,VALID,0,VALID,20.1001,VALID,239,VALID,1.17839,
2001-04-08, 02:43:00,VALID,916.501,VALID,0,VALID,98.3077,VALID,-0.0339617,VALID,20.0802,VALID,238,VALID,1.11089,
2001-04-08, 02:44:00,VALID,916.506,VALID,0,VALID,98.295,VALID,0,VALID,20.0869,VALID,227,VALID,0.942057,
2001-04-08, 02:45:00,VALID,916.505,VALID,0,VALID,98.2747,VALID,0,VALID,20.0836,VALID,239,VALID,1.04544,
2001-04-08, 02:46:00,VALID,916.502,VALID,0,VALID,98.2505,VALID,0,VALID,20.0769,VALID,233,VALID,0.80599,
2001-04-08, 02:47:00,VALID,916.509,VALID,0,VALID,98.2467,VALID,-0.0339617,VALID,20.061,VALID,230,VALID,0.784071,
2001-04-08, 02:48:00,VALID,916.493,VALID,0,VALID,98.1234,VALID,0,VALID,20.0583,VALID,225,VALID,1.13021,
2001-04-08, 02:49:00,VALID,916.493,VALID,0,VALID,98.0712,VALID,0,VALID,20.0518,VALID,235,VALID,0.840625,
2001-04-08, 02:50:00,VALID,916.485,VALID,0,VALID,97.9326,VALID,-0.0169808,VALID,20.0712,VALID,233,VALID,1.22487,
2001-04-08, 02:51:00,VALID,916.492,VALID,0,VALID,97.8169,VALID,0.0169808,VALID,20.064,VALID,231,VALID,0.776563,
2001-04-08, 02:52:00,VALID,916.484,VALID,0,VALID,97.7304,VALID,0.0339617,VALID,20.0807,VALID,221,VALID,0.495877,
2001-04-08, 02:53:00,VALID,916.479,VALID,0,VALID,97.6707,VALID,0,VALID,20.0901,VALID,232,VALID,0.633814,
2001-04-08, 02:54:00,VALID,916.469,VALID,0,VALID,97.6452,VALID,-0.0339617,VALID,20.0971,VALID,232,VALID,0.549107,
2001-04-08, 02:55:00,VALID,916.468,VALID,0,VALID,97.5906,VALID,-0.0169808,VALID,20.0839,VALID,207,VALID,0.265203,
2001-04-08, 02:56:00,VALID,916.45,VALID,0,VALID,97.5333,VALID,-0.0169808,VALID,20.0742,VALID,213,VALID,0.51317,
2001-04-08, 02:57:00,VALID,916.439,VALID,0,VALID,97.4698,VALID,-0.0339617,VALID,20.0513,VALID,201,VALID,0.506293,
2001-04-08, 02:58:00,VALID,916.433,VALID,0,VALID,97.3884,VALID,-0.0169808,VALID,20.0551,VALID,220,VALID,0.934245,
2001-04-08, 02:59:00,VALID,916.41,VALID,0,VALID,97.246,VALID,0,VALID,20.0551,VALID,226,VALID,0.559028,
2001-04-08, 03:00:00,VALID,916.401,VALID,0,VALID,97.1277,VALID,0,VALID,20.0551,VALID,237,VALID,0.85403,
2001-04-08, 03:01:00,VALID,916.396,VALID,0,VALID,97.0756,VALID,0,VALID,20.0521,VALID,231,VALID,0.806641,
2001-04-08, 03:02:00,VALID,916.359,VALID,0,VALID,97.0171,VALID,-0.0169808,VALID,20.0449,VALID,242,VALID,0.692274,
2001-04-08, 03:03:00,VALID,916.344,VALID,0,VALID,97.0094,VALID,-0.0339617,VALID,20.0417,VALID,237,VALID,1.03105,
2001-04-08, 03:04:00,VALID,916.327,VALID,0,VALID,96.984,VALID,-0.0169808,VALID,20.0623,VALID,242,VALID,0.637054,
2001-04-08, 03:05:00,VALID,916.316,VALID,0,VALID,96.9395,VALID,0,VALID,20.0653,VALID,231,VALID,0.726985,
2001-04-08, 03:06:00,VALID,916.295,VALID,0,VALID,96.9509,VALID,0,VALID,20.0486,VALID,229,VALID,0.840625,
2001-04-08, 03:07:00,VALID,916.297,VALID,0,VALID,96.942,VALID,-0.0169808,VALID,20.0422,VALID,242,VALID,0.756727,
2001-04-08, 03:08:00,VALID,916.274,VALID,0,VALID,96.9242,VALID,-0.0169808,VALID,20.0263,VALID,241,VALID,0.863381,
2001-04-08, 03:09:00,VALID,916.266,VALID,0,VALID,96.8899,VALID,-0.0509425,VALID,20.02,VALID,227,VALID,0.926562,
2001-04-08, 03:10:00,VALID,916.243,VALID,0,VALID,96.9382,VALID,-0.0339617,VALID,20.0074,VALID,238,VALID,1.2234,
2001-04-08, 03:11:00,VALID,916.247,VALID,0,VALID,96.8797,VALID,-0.0169808,VALID,19.9875,VALID,230,VALID,0.985045,
2001-04-08, 03:12:00,VALID,916.234,VALID,0,VALID,96.8785,VALID,-0.0339617,VALID,19.9845,VALID,244,VALID,0.998915,
2001-04-08, 03:13:00,VALID,916.239,VALID,0,VALID,96.881,VALID,-0.0169808,VALID,19.9845,VALID,237,VALID,0.959201,
2001-04-08, 03:14:00,VALID,916.25,VALID,0,VALID,96.9052,VALID,-0.0169808,VALID,19.9743,VALID,245,VALID,0.993707,
2001-04-08, 03:15:00,VALID,916.228,VALID,0,VALID,96.9281,VALID,-0.0169808,VALID,19.9813,VALID,236,VALID,0.94778,
2001-04-08, 03:16:00,VALID,916.236,VALID,0,VALID,96.9929,VALID,-0.0169808,VALID,19.9684,VALID,238,VALID,0.901693,
2001-04-08, 03:17:00,VALID,916.205,VALID,0,VALID,96.9713,VALID,-0.0169808,VALID,19.9584,VALID,237,VALID,0.501085,
2001-04-08, 03:18:00,VALID,916.207,VALID,0,VALID,96.9713,VALID,-0.0169808,VALID,19.949,VALID,225,VALID,0.92488,
2001-04-08, 03:19:00,VALID,916.199,VALID,0,VALID,97.0323,VALID,0,VALID,19.9291,VALID,225,VALID,1.02277,
2001-04-08, 03:20:00,VALID,916.205,VALID,0,VALID,97.045,VALID,-0.0509425,VALID,19.9167,VALID,231,VALID,1.10726,
2001-04-08, 03:21:00,VALID,916.204,VALID,0,VALID,97.0819,VALID,0,VALID,19.8908,VALID,222,VALID,1.17545,
2001-04-08, 03:22:00,VALID,916.201,VALID,0,VALID,97.1035,VALID,0.0169808,VALID,19.8776,VALID,227,VALID,1.04058,
2001-04-08, 03:23:00,VALID,916.203,VALID,0,VALID,97.1213,VALID,0.0679233,VALID,19.8573,VALID,226,VALID,1.01542,
2001-04-08, 03:24:00,VALID,916.202,VALID,0,VALID,97.1493,VALID,0.0849042,VALID,19.8441,VALID,223,VALID,1.1058,
2001-04-08, 03:25:00,VALID,916.198,VALID,0,VALID,97.1646,VALID,0.0849042,VALID,19.8478,VALID,206,VALID,0.745355,
2001-04-08, 03:26:00,VALID,916.19,VALID,0,VALID,97.1926,VALID,0.0679233,VALID,19.8344,VALID,192,VALID,0.73125,
2001-04-08, 03:27:00,VALID,916.187,VALID,0,VALID,97.19,VALID,0.0509425,VALID,19.8215,VALID,206,VALID,0.393663,
2001-04-08, 03:28:00,VALID,916.187,VALID,0,VALID,97.2485,VALID,0.101885,VALID,19.8185,VALID,214,VALID,0.803168,
2001-04-08, 03:29:00,VALID,916.181,VALID,0,VALID,97.2892,VALID,0.0679233,VALID,19.8217,VALID,215,VALID,0.539063,
2001-04-08, 03:30:00,VALID,916.178,VALID,0,VALID,97.2879,VALID,0.101885,VALID,19.812,VALID,220,VALID,0.44963,
2001-04-08, 03:31:00,VALID,916.169,VALID,0,VALID,97.2943,VALID,0.0679233,VALID,19.8091,VALID,222,VALID,0.577257,
2001-04-08, 03:32:00,VALID,916.159,VALID,0,VALID,97.3515,VALID,0.0679233,VALID,19.7862,VALID,223,VALID,1.14019,
2001-04-08, 03:33:00,VALID,916.146,VALID,0,VALID,97.3833,VALID,0.101885,VALID,19.776,VALID,223,VALID,1.00801,
2001-04-08, 03:34:00,VALID,916.151,VALID,0,VALID,97.4634,VALID,0.101885,VALID,19.7795,VALID,227,VALID,1.46116,